HB9KBJ-8 Weather Reports


Display with metric or nautical units.
time (UTC)temp
F
wind
direction
speed
MPH
gust
MPH
rain 1hr
in
rain 24hr
in
rain mn
in
humidity
%
barometer
mb
20260902092223 67 23 0.0 0.0 0.00 0.00 0.00 70 1023.4
20260902091726 67 23 0.0 0.0 0.00 0.00 0.00 71 1023.6
20260902091229 67 23 0.0 0.0 0.00 0.00 0.00 69 1023.7
20260902090730 67 22 0.0 0.0 0.00 0.00 0.00 69 1023.5
20260902090234 68 22 0.0 0.0 0.00 0.00 0.00 65 1023.5
20260902085728 68 22 0.0 0.0 0.00 0.00 0.00 70 1023.4
20260902085228 67 22 0.0 0.0 0.00 0.00 0.00 68 1023.4
20260902084730 68 21 0.0 0.0 0.00 0.00 0.00 67 1023.5
20260902084227 68 21 0.0 0.0 0.00 0.00 0.00 69 1023.3
20260902083726 66 21 0.0 0.0 0.00 0.00 0.00 71 1023.4
20260902083222 65 21 0.0 0.0 0.00 0.00 0.00 73 1023.5
20260902082723 64 21 0.0 0.0 0.00 0.00 0.00 76 1023.5
20260902082223 62 21 0.0 0.0 0.00 0.00 0.00 77 1023.5
20260902081720 62 21 0.0 0.0 0.00 0.00 0.00 77 1023.5
20260902081217 62 21 0.0 0.0 0.00 0.00 0.00 78 1023.5
20260902080714 62 21 0.0 0.0 0.00 0.00 0.00 78 1023.3
20260902080228 62 21 0.0 0.0 0.00 0.00 0.00 78 1023.3
20260902075721 61 21 0.0 0.0 0.00 0.00 0.00 79 1023.3
20260902075222 61 21 0.0 0.0 0.00 0.00 0.00 78 1023.2
20260902074719 62 21 0.0 0.0 0.00 0.00 0.00 79 1023.1
20260902074217 61 21 0.0 0.0 0.00 0.00 0.00 81 1023.2
20260902073720 59 21 0.0 0.0 0.00 0.00 0.00 82 1023.2
20260902073220 59 21 0.0 0.0 0.00 0.00 0.00 81 1023.2
20260902072723 60 21 0.0 0.0 0.00 0.00 0.00 83 1023.2
20260902072227 59 21 0.0 0.0 0.00 0.00 0.00 85 1023.2
20260902071731 58 21 0.0 0.0 0.00 0.00 0.00 85 1023.3
20260902071214 57 21 0.0 0.0 0.00 0.00 0.00 85 1023.3
20260902070717 57 21 0.0 0.0 0.00 0.00 0.00 85 1023.4
20260902070219 57 21 0.0 0.0 0.00 0.00 0.00 85 1023.4
20260902065721 57 21 0.0 0.0 0.00 0.00 0.00 85 1023.4
20260902065226 56 21 0.0 0.0 0.00 0.00 0.00 85 1023.4
20260902064721 56 21 0.0 0.0 0.00 0.00 0.00 85 1023.3
20260902064219 56 21 0.0 0.0 0.00 0.00 0.00 86 1023.3
20260902063721 56 21 0.0 0.0 0.00 0.00 0.00 86 1023.2
20260902063217 57 21 0.0 0.0 0.00 0.00 0.00 86 1023.2
20260902062716 56 21 0.0 0.0 0.00 0.00 0.00 86 1023.2
20260902062233 56 21 0.0 0.0 0.00 0.00 0.00 86 1023.3
20260902061731 56 21 0.0 0.0 0.00 0.00 0.00 86 1023.4
20260902061228 56 21 0.0 0.0 0.00 0.00 0.00 86 1023.4
20260902060730 56 21 0.0 0.0 0.00 0.00 0.00 86 1023.4
20260902060216 55 21 0.0 0.0 0.00 0.00 0.00 86 1023.3
20260902055730 55 21 0.0 0.0 0.00 0.00 0.00 86 1023.2
20260902055227 54 21 0.0 0.0 0.00 0.00 0.00 86 1023.3
20260902054728 54 21 0.0 0.0 0.00 0.00 0.00 86 1023.2
20260902054224 54 21 0.0 0.0 0.00 0.00 0.00 86 1023.2
20260902053726 53 21 0.0 0.0 0.00 0.00 0.00 86 1023.2
20260902053224 53 21 0.0 0.0 0.00 0.00 0.00 86 1023.2
20260902052727 53 21 0.0 0.0 0.00 0.00 0.00 86 1023.1
20260902052230 53 21 0.0 0.0 0.00 0.00 0.00 86 1023.1
20260902051714 53 21 0.0 0.0 0.00 0.00 0.00 86 1023.0
20260902051235 53 21 0.0 0.0 0.00 0.00 0.00 86 1023.0
20260902050735 53 21 0.0 0.0 0.00 0.00 0.00 86 1023.0
20260902050232 53 21 0.0 0.0 0.00 0.00 0.00 86 1022.9
20260902045726 53 21 0.0 0.0 0.00 0.00 0.00 86 1022.9
20260902045224 53 21 0.0 0.0 0.00 0.00 0.00 86 1022.9
20260902044721 53 21 0.0 0.0 0.00 0.00 0.00 86 1023.0
20260902044220 53 21 0.0 0.0 0.00 0.00 0.00 86 1022.9
20260902043721 53 21 0.0 0.0 0.00 0.00 0.00 86 1022.9
20260902043220 53 21 0.0 0.0 0.00 0.00 0.00 86 1022.8
20260902042718 53 21 0.0 0.0 0.00 0.00 0.00 86 1022.7
20260902042219 53 21 0.0 0.0 0.00 0.00 0.00 86 1022.7
20260902041719 53 21 0.0 0.0 0.00 0.00 0.00 86 1022.8
20260902041217 53 21 0.0 0.0 0.00 0.00 0.00 86 1022.7
20260902040735 53 21 0.0 0.0 0.00 0.00 0.00 86 1022.7
20260902040219 53 21 0.0 0.0 0.00 0.00 0.00 86 1022.7
20260902035732 53 21 0.0 0.0 0.00 0.00 0.00 86 1022.7
20260902035228 53 21 0.0 0.0 0.00 0.00 0.00 86 1022.7
20260902034728 53 21 0.0 0.0 0.00 0.00 0.00 86 1022.8
20260902034231 53 21 0.0 0.0 0.00 0.00 0.00 86 1022.8
20260902033714 53 21 0.0 0.0 0.00 0.00 0.00 86 1022.8
20260902033218 54 21 0.0 0.0 0.00 0.00 0.00 86 1022.7
20260902032721 54 21 0.0 0.0 0.00 0.00 0.00 86 1022.7
20260902032223 54 21 0.0 0.0 0.00 0.00 0.00 86 1022.7
20260902031712 53 21 0.0 0.0 0.00 0.00 0.00 86 1022.7
20260902031231 54 21 0.0 0.0 0.00 0.00 0.00 85 1022.7
20260902030732 54 21 0.0 0.0 0.00 0.00 0.00 85 1022.7
20260902030230 54 21 0.0 0.0 0.00 0.00 0.00 85 1022.8
20260902025728 54 21 0.0 0.0 0.00 0.00 0.00 85 1022.7
20260902025227 54 21 0.0 0.0 0.00 0.00 0.00 85 1022.7
20260902024723 54 21 0.0 0.0 0.00 0.00 0.00 85 1022.7
20260902024220 54 21 0.0 0.0 0.00 0.00 0.00 85 1022.6
20260902023718 54 21 0.0 0.0 0.00 0.00 0.00 85 1022.7
20260902023215 54 21 0.0 0.0 0.00 0.00 0.00 85 1022.6
20260902022714 54 21 0.0 0.0 0.00 0.00 0.00 85 1022.7
20260902022216 55 21 0.0 0.0 0.00 0.00 0.00 85 1022.7
20260902021714 55 21 0.0 0.0 0.00 0.00 0.00 85 1022.7
20260902021218 55 21 0.0 0.0 0.00 0.00 0.00 84 1022.6
20260902020718 55 21 0.0 0.0 0.00 0.00 0.00 85 1022.5
20260902020229 55 21 0.0 0.0 0.00 0.00 0.00 85 1022.6
20260902015722 55 21 0.0 0.0 0.00 0.00 0.00 85 1022.6
20260902015223 55 21 0.0 0.0 0.00 0.00 0.00 84 1022.6
20260902014723 55 21 0.0 0.0 0.00 0.00 0.00 84 1022.6
20260902014221 55 21 0.0 0.0 0.00 0.00 0.00 84 1022.6
20260902013719 55 21 0.0 0.0 0.00 0.00 0.00 84 1022.5
20260902013220 55 21 0.0 0.0 0.00 0.00 0.00 84 1022.6
20260902012718 56 21 0.0 0.0 0.00 0.00 0.00 83 1022.7
20260902012214 56 21 0.0 0.0 0.00 0.00 0.00 83 1022.6
20260902011734 56 21 0.0 0.0 0.00 0.00 0.00 83 1022.6
20260902011231 56 21 0.0 0.0 0.00 0.00 0.00 83 1022.6
20260902010728 56 21 0.0 0.0 0.00 0.00 0.00 83 1022.7
20260902010227 56 21 0.0 0.0 0.00 0.00 0.00 83 1022.7
20260902005712 56 21 0.0 0.0 0.00 0.00 0.00 83 1022.7
20260902005231 56 21 0.0 0.0 0.00 0.00 0.00 83 1022.7
20260902004727 56 21 0.0 0.0 0.00 0.00 0.00 83 1022.8
20260902004224 56 21 0.0 0.0 0.00 0.00 0.00 83 1022.8
20260902003721 56 21 0.0 0.0 0.00 0.00 0.00 83 1022.8
20260902003218 56 21 0.0 0.0 0.00 0.00 0.00 83 1022.8
20260902002717 56 21 0.0 0.0 0.00 0.00 0.00 83 1022.8
20260902002218 56 21 0.0 0.0 0.00 0.00 0.00 83 1022.8
20260902001721 56 21 0.0 0.0 0.00 0.00 0.00 83 1022.7
20260902001223 57 21 0.0 0.0 0.00 0.00 0.00 83 1022.7
20260902000725 57 21 0.0 0.0 0.00 0.00 0.00 82 1022.7
20260902000233 57 21 0.0 0.0 0.00 0.00 0.00 82 1022.7
20260901235727 57 21 0.0 0.0 0.00 0.00 0.00 82 1022.7
20260901235223 57 21 0.0 0.0 0.00 0.00 0.00 82 1022.7
20260901234724 57 21 0.0 0.0 0.00 0.00 0.00 82 1022.7
20260901234224 58 21 0.0 0.0 0.00 0.00 0.00 82 1022.7
20260901233721 58 21 0.0 0.0 0.00 0.00 0.00 81 1022.7
20260901233223 58 21 0.0 0.0 0.00 0.00 0.00 81 1022.7
20260901232723 58 21 0.0 0.0 0.00 0.00 0.00 81 1022.7
20260901232223 58 21 0.0 0.0 0.00 0.00 0.00 80 1022.7
20260901231723 58 21 0.0 0.0 0.00 0.00 0.00 80 1022.7
20260901231219 58 21 0.0 0.0 0.00 0.00 0.00 79 1022.7
20260901230718 59 21 0.0 0.0 0.00 0.00 0.00 79 1022.7
20260901230216 59 21 0.0 0.0 0.00 0.00 0.00 79 1022.7
20260901225734 58 21 0.0 0.0 0.00 0.00 0.00 79 1022.6
20260901225232 58 21 0.0 0.0 0.00 0.00 0.00 79 1022.6
20260901224730 59 21 0.0 0.0 0.00 0.00 0.00 79 1022.7
20260901224229 59 21 0.0 0.0 0.00 0.00 0.00 79 1022.6
20260901223730 59 21 0.0 0.0 0.00 0.00 0.00 79 1022.6
20260901223226 59 21 0.0 0.0 0.00 0.00 0.00 79 1022.6
20260901222721 59 21 0.0 0.0 0.00 0.00 0.00 79 1022.6
20260901222223 59 21 0.0 0.0 0.00 0.00 0.00 78 1022.5
20260901221726 59 21 0.0 0.0 0.00 0.00 0.00 78 1022.5
20260901221228 59 21 0.0 0.0 0.00 0.00 0.00 79 1022.5
20260901220731 59 21 0.0 0.0 0.00 0.00 0.00 79 1022.5
20260901220232 59 21 0.0 0.0 0.00 0.00 0.00 79 1022.6
20260901215725 59 21 0.0 0.0 0.00 0.00 0.00 79 1022.6
20260901215224 59 21 0.0 0.0 0.00 0.00 0.00 79 1022.6
20260901214721 60 21 0.0 0.0 0.00 0.00 0.00 78 1022.6
20260901214223 60 21 0.0 0.0 0.00 0.00 0.00 77 1022.6
20260901213724 60 21 0.0 0.0 0.00 0.00 0.00 76 1022.7
20260901213229 60 21 0.0 0.0 0.00 0.00 0.00 76 1022.6
20260901212717 60 21 0.0 0.0 0.00 0.00 0.00 76 1022.6
20260901212221 61 21 0.0 0.0 0.00 0.00 0.00 76 1022.5
20260901211722 61 21 0.0 0.0 0.00 0.00 0.00 76 1022.6
20260901211222 61 21 0.0 0.0 0.00 0.00 0.00 75 1022.7
20260901210721 61 21 0.0 0.0 0.00 0.00 0.00 76 1022.7
20260901210217 61 21 0.0 0.0 0.00 0.00 0.00 76 1022.7
20260901205730 61 21 0.0 0.0 0.00 0.00 0.00 76 1022.7
20260901205226 61 21 0.0 0.0 0.00 0.00 0.00 75 1022.7
20260901204724 61 21 0.0 0.0 0.00 0.00 0.00 76 1022.7
20260901204227 61 21 0.0 0.0 0.00 0.00 0.00 76 1022.7
20260901203729 62 21 0.0 0.0 0.00 0.00 0.00 75 1022.8
20260901203226 62 21 0.0 0.0 0.00 0.00 0.00 75 1022.7
20260901202724 62 21 0.0 0.0 0.00 0.00 0.00 74 1022.7
20260901202220 62 21 0.0 0.0 0.00 0.00 0.00 74 1022.7
20260901201722 62 21 0.0 0.0 0.00 0.00 0.00 74 1022.7
20260901201224 62 21 0.0 0.0 0.00 0.00 0.00 74 1022.6
20260901200727 63 21 0.0 0.0 0.00 0.00 0.00 73 1022.6
20260901200220 63 21 0.0 0.0 0.00 0.00 0.00 73 1022.5
20260901195720 63 21 0.0 0.0 0.00 0.00 0.00 72 1022.5
20260901195223 63 21 0.0 0.0 0.00 0.00 0.00 71 1022.5
20260901194723 63 21 0.0 0.0 0.00 0.00 0.00 70 1022.5
20260901194222 63 21 0.0 0.0 0.00 0.00 0.00 70 1022.5
20260901193721 64 21 0.0 0.0 0.00 0.00 0.00 70 1022.5
20260901193218 64 21 0.0 0.0 0.00 0.00 0.00 70 1022.5
20260901192734 64 21 0.0 0.0 0.00 0.00 0.00 69 1022.5
20260901192212 64 21 0.0 0.0 0.00 0.00 0.00 69 1022.4
20260901191734 64 21 0.0 0.0 0.00 0.00 0.00 69 1022.4
20260901191216 65 21 0.0 0.0 0.00 0.00 0.00 69 1022.5
20260901190733 65 21 0.0 0.0 0.00 0.00 0.00 67 1022.4
20260901190231 66 21 0.0 0.0 0.00 0.00 0.00 67 1022.4
20260901185724 66 21 0.0 0.0 0.00 0.00 0.00 64 1022.3
20260901185222 66 21 0.0 0.0 0.00 0.00 0.00 63 1022.3
20260901184718 67 21 0.0 0.0 0.00 0.00 0.00 62 1022.2
20260901184217 67 21 0.0 0.0 0.00 0.00 0.00 61 1022.1
20260901183734 67 21 0.0 0.0 0.00 0.00 0.00 61 1022.0
20260901183228 67 21 0.0 0.0 0.00 0.00 0.00 61 1022.0
20260901182728 67 21 0.0 0.0 0.00 0.00 0.00 60 1021.9
20260901182226 67 21 0.0 0.0 0.00 0.00 0.00 60 1021.9
20260901181723 68 21 0.0 0.0 0.00 0.00 0.00 61 1021.8
20260901181221 68 21 0.0 0.0 0.00 0.00 0.00 61 1021.8
20260901180717 68 21 0.0 0.0 0.00 0.00 0.00 61 1021.8
20260901180222 69 21 0.0 0.0 0.00 0.00 0.00 61 1021.8
20260901175716 69 21 0.0 0.0 0.00 0.00 0.00 60 1021.7
20260901175223 69 21 0.0 0.0 0.00 0.00 0.00 60 1021.7
20260901174726 70 21 0.0 0.0 0.00 0.00 0.00 60 1021.7
20260901174224 70 21 0.0 0.0 0.00 0.00 0.00 60 1021.7
20260901173728 71 21 0.0 0.0 0.00 0.00 0.00 58 1021.7
20260901173229 72 21 0.0 0.0 0.00 0.00 0.00 56 1021.7
20260901172726 73 21 0.0 0.0 0.00 0.00 0.00 54 1021.7
20260901172222 74 21 0.0 0.0 0.00 0.00 0.00 52 1021.6
20260901171726 76 21 0.0 0.0 0.00 0.00 0.00 47 1021.6
20260901171223 76 21 0.0 0.0 0.00 0.00 0.00 44 1021.5
20260901170722 76 21 0.0 0.0 0.00 0.00 0.00 45 1021.5
20260901170221 76 21 0.0 0.0 0.00 0.00 0.00 44 1021.6
20260901165715 76 21 0.0 0.0 0.00 0.00 0.00 44 1021.6
20260901165232 77 21 0.0 0.0 0.00 0.00 0.00 44 1021.6
20260901164726 77 21 0.0 0.0 0.00 0.00 0.00 44 1021.7
20260901164228 77 21 0.0 0.0 0.00 0.00 0.00 45 1021.6
20260901163722 76 21 0.0 0.0 0.00 0.00 0.00 45 1021.7
20260901163219 76 21 0.0 0.0 0.00 0.00 0.00 45 1021.7
20260901162721 76 21 0.0 0.0 0.00 0.00 0.00 45 1021.7
20260901162218 76 21 0.0 0.0 0.00 0.00 0.00 45 1021.8
20260901161716 76 21 0.0 0.0 0.00 0.00 0.00 45 1021.7
20260901161217 77 21 0.0 0.0 0.00 0.00 0.00 44 1021.7
20260901160716 76 21 0.0 0.0 0.00 0.00 0.00 46 1021.7
20260901160224 77 21 0.0 0.0 0.00 0.00 0.00 43 1021.7
20260901155720 78 21 0.0 0.0 0.00 0.00 0.00 45 1021.8
20260901155221 77 21 0.0 0.0 0.00 0.00 0.00 46 1021.8
20260901154721 77 21 0.0 0.0 0.00 0.00 0.00 45 1021.8
20260901154219 77 21 0.0 0.0 0.00 0.00 0.00 45 1021.8
20260901153723 76 21 0.0 0.0 0.00 0.00 0.00 45 1021.8
20260901153226 77 21 0.0 0.0 0.00 0.00 0.00 43 1021.8
20260901152714 76 21 0.0 0.0 0.00 0.00 0.00 46 1021.8
20260901152235 76 21 0.0 0.0 0.00 0.00 0.00 46 1021.9
20260901151731 76 21 0.0 0.0 0.00 0.00 0.00 46 1021.9
20260901151227 77 21 0.0 0.0 0.00 0.00 0.00 45 1021.8
20260901150726 77 21 0.0 0.0 0.00 0.00 0.00 46 1021.8
20260901150227 76 21 0.0 0.0 0.00 0.00 0.00 47 1021.8
20260901145727 76 21 0.0 0.0 0.00 0.00 0.00 47 1021.7
20260901145229 76 21 0.0 0.0 0.00 0.00 0.00 47 1021.7
20260901144731 76 21 0.0 0.0 0.00 0.00 0.00 47 1021.8
20260901144232 77 21 0.0 0.0 0.00 0.00 0.00 46 1021.8
20260901143727 75 21 0.0 0.0 0.00 0.00 0.00 47 1021.8
20260901143226 76 23 0.0 0.0 0.00 0.00 0.00 48 1021.8
20260901142725 76 20 0.0 0.0 0.00 0.00 0.00 47 1021.7
20260901142227 76 19 0.0 0.0 0.00 0.00 0.00 47 1021.8
20260901141724 76 19 0.0 0.0 0.00 0.00 0.00 46 1021.8
20260901141223 77 19 0.0 0.0 0.00 0.00 0.00 44 1021.9
20260901140722 77 19 0.0 0.0 0.00 0.00 0.00 46 1021.8
20260901140228 77 19 0.0 0.0 0.00 0.00 0.00 45 1021.9
20260901135722 79 19 0.0 0.0 0.00 0.00 0.00 42 1022.0
20260901135219 79 19 0.0 0.0 0.00 0.00 0.00 43 1022.0
20260901134719 76 19 0.0 0.0 0.00 0.00 0.00 45 1022.1
20260901134218 81 19 0.0 0.0 0.00 0.00 0.00 42 1022.2
20260901133721 78 19 0.0 0.0 0.00 0.00 0.00 46 1022.2
20260901133215 76 19 0.0 0.0 0.00 0.00 0.00 46 1022.2
20260901132730 76 19 0.0 0.0 0.00 0.00 0.00 47 1022.2
20260901132227 77 19 0.0 0.0 0.00 0.00 0.00 47 1022.3
20260901131729 76 19 0.0 0.0 0.00 0.00 0.00 47 1022.2
20260901131225 76 19 0.0 0.0 0.00 0.00 0.00 48 1022.3
20260901130729 76 19 0.0 0.0 0.00 0.00 0.00 48 1022.4
20260901130231 76 19 0.0 0.0 0.00 0.00 0.00 46 1022.4
20260901125725 77 19 0.0 0.0 0.00 0.00 0.00 49 1022.5
20260901125223 76 19 0.0 0.0 0.00 0.00 0.00 47 1022.6
20260901124722 76 22 0.0 0.0 0.00 0.00 0.00 49 1022.6
20260901124217 76 57 0.0 0.0 0.00 0.00 0.00 47 1022.7
20260901123734 76 57 0.0 0.0 0.00 0.00 0.00 49 1022.7
20260901123232 75 57 0.0 0.0 0.00 0.00 0.00 49 1022.6
20260901122730 76 44 0.0 0.0 0.00 0.00 0.00 48 1022.6
20260901122228 75 44 0.0 0.0 0.00 0.00 0.00 49 1022.7
20260901121726 75 43 0.0 0.0 0.00 0.00 0.00 50 1022.6
20260901121229 75 43 0.0 0.0 0.00 0.00 0.00 49 1022.8
20260901120730 75 41 0.0 0.0 0.00 0.00 0.00 52 1022.7
20260901120222 74 41 0.0 0.0 0.00 0.00 0.00 55 1022.8
20260901115721 73 41 0.0 0.0 0.00 0.00 0.00 53 1022.9
20260901115220 76 47 0.0 0.0 0.00 0.00 0.00 50 1022.8
20260901114721 75 47 0.0 0.0 0.00 0.00 0.00 54 1022.9
20260901114225 73 47 0.0 0.0 0.00 0.00 0.00 56 1023.0
20260901113726 74 47 0.0 0.0 0.00 0.00 0.00 54 1023.0
20260901113223 74 48 0.0 0.0 0.00 0.00 0.00 53 1023.0
20260901112721 75 50 0.0 0.0 0.00 0.00 0.00 53 1023.1
20260901112222 74 51 0.0 0.0 0.00 0.00 0.00 56 1023.1
20260901111718 74 51 0.0 0.0 0.00 0.00 0.00 53 1023.1
20260901111218 75 49 0.0 0.0 0.00 0.00 0.00 52 1023.1
20260901110716 74 73 0.0 0.0 0.00 0.00 0.00 53 1023.1
20260901110233 74 76 0.0 0.0 0.00 0.00 0.00 53 1023.2
20260901105727 76 76 0.0 0.0 0.00 0.00 0.00 49 1023.1
20260901105227 75 76 0.0 0.0 0.00 0.00 0.00 51 1023.1
20260901104733 75 76 0.0 0.0 0.00 0.00 0.00 50 1023.1
20260901104230 74 76 0.0 0.0 0.00 0.00 0.00 53 1023.1
20260901103728 74 76 0.0 0.0 0.00 0.00 0.00 53 1023.2
20260901103225 72 76 0.0 0.0 0.00 0.00 0.00 56 1023.2
20260901102725 73 76 0.0 0.0 0.00 0.00 0.00 54 1023.3
20260901102221 75 73 0.0 0.0 0.00 0.00 0.00 52 1023.3
20260901101718 74 73 0.0 0.0 0.00 0.00 0.00 54 1023.3
20260901101218 74 76 0.0 0.0 0.00 0.00 0.00 52 1023.4
20260901100716 73 76 0.0 0.0 0.00 0.00 0.00 53 1023.5
20260901100222 74 76 0.0 0.0 0.00 0.00 0.00 53 1023.5
20260901095717 73 76 0.0 0.0 0.00 0.00 0.00 54 1023.5
20260901095219 74 76 0.0 0.0 0.00 0.00 0.00 54 1023.6
20260901094723 72 76 0.0 0.0 0.00 0.00 0.00 58 1023.6
20260901094225 71 76 0.0 0.0 0.00 0.00 0.00 60 1023.7
20260901093720 72 76 0.0 0.0 0.00 0.00 0.00 56 1023.8
20260901093223 75 76 0.0 0.0 0.00 0.00 0.00 55 1023.7
20260901092720 72 76 0.0 0.0 0.00 0.00 0.00 58 1023.6